Date,TemperatureHighF,TemperatureAvgF,TemperatureLowF,DewpointHighF,DewpointAvgF,DewpointLowF,HumidityHigh,HumidityAvg,HumidityLow,PressureMaxIn,PressureMinIn,WindSpeedMaxMPH,WindSpeedAvgMPH,GustSpeedMaxMPH,PrecipitationSumIn
2013-1-1,33.8,17.8,9.3,30.2,0.5,-9.6,89,46,36,29.97,29.65,20,10,29,0.00
2013-1-2,15.4,8.1,1.0,2.1,-4.3,-9.9,59,56,44,30.27,29.85,13,7,19,0.00
2013-1-3,14.9,4.4,-4.2,2.3,-6.9,-14.8,59,59,47,30.27,29.88,10,5,19,0.00
2013-1-4,34.7,28.3,15.4,18.9,12.7,-0.2,60,52,44,29.88,29.68,14,10,26,0.00
2013-1-5,35.1,23.7,14.5,18.0,4.4,-2.7,57,43,33,30.27,29.74,17,8,28,0.00
2013-1-6,34.2,25.6,17.8,24.4,13.4,0.5,81,60,45,30.18,29.85,10,6,16,0.00
2013-1-7,23.5,13.6,7.7,16.2,2.0,-8.3,83,60,44,30.39,30.03,10,5,17,0.00
2013-1-8,37.8,32.3,23.5,19.2,13.1,9.0,54,45,34,30.36,30.12,10,6,26,0.00
2013-1-9,41.9,34.5,25.2,30.0,15.7,10.2,80,47,33,30.33,29.82,17,7,26,0.00
2013-1-10,37.9,37.3,36.1,28.0,21.3,18.5,72,52,46,30.18,30.00,23,18,36,0.00
2013-1-17,24.8,11.0,5.9,6.4,-11.5,-16.4,45,35,33,30.24,29.97,12,8,24,0.00
2013-1-18,20.7,11.2,1.6,0.7,-11.7,-20.2,41,34,30,30.36,30.18,13,5,20,0.00
2013-1-19,41.0,31.2,19.0,16.9,10.1,1.6,80,43,31,30.18,29.68,11,8,25,0.00
2013-1-20,42.6,32.7,11.7,26.1,11.2,-6.0,81,41,31,30.00,29.32,20,11,33,0.00
2013-1-21,12.2,8.8,5.7,-5.4,-8.6,-11.4,44,44,44,30.06,29.85,9,6,15,0.00
2013-1-22,9.1,4.9,0.3,-8.3,-12.1,-16.4,44,44,44,30.12,29.82,18,6,26,0.00
2013-1-23,0.3,-5.2,-10.1,-16.4,-21.4,-26.0,44,44,44,30.24,30.09,13,6,19,0.00
2013-1-24,7.7,1.0,-8.3,-9.6,-15.7,-24.3,44,44,44,30.39,30.18,15,7,23,0.00
2013-1-25,10.6,5.7,-0.4,-7.1,-11.5,-17.0,44,44,44,30.41,30.12,15,6,21,0.00
2013-1-26,13.5,8.7,2.5,-4.4,-8.7,-14.4,44,44,44,30.30,30.12,10,5,15,0.00
2013-1-27,12.6,9.2,6.1,-5.1,-8.3,-11.0,44,44,44,30.47,30.30,10,6,17,0.00
2013-1-31,35.8,35.8,35.8,9.5,9.5,9.5,33,33,33,29.12,29.12,17,17,22,0.00
2013-2-2,21.0,13.7,7.5,9.0,5.3,1.2,75,69,50,30.03,30.00,5,2,8,0.00
2013-2-3,20.7,12.6,6.1,10.4,4.5,0.0,78,70,47,30.03,29.74,5,1,8,0.00
2013-2-4,22.5,14.9,8.4,8.4,-2.0,-13.5,74,48,34,29.94,29.74,17,6,24,0.00
2013-2-5,19.9,10.8,0.3,-3.6,-11.5,-20.7,41,35,27,30.03,29.88,7,2,9,0.00
2013-2-6,25.7,19.0,10.0,19.2,-1.4,-13.9,77,41,27,30.39,29.85,12,6,22,0.00
2013-2-7,10.6,5.2,-0.9,-13.4,-18.2,-23.6,32,32,32,30.62,30.39,8,5,13,0.00
2013-2-8,23.2,14.2,6.4,19.8,-1.3,-17.1,88,53,32,30.44,30.00,12,2,19,0.00
2013-2-9,18.3,11.1,8.6,10.9,-1.2,-13.4,76,60,35,30.36,30.00,14,8,25,0.00
2013-2-10,26.1,10.0,-8.9,2.3,-11.8,-29.0,49,36,29,30.47,30.21,5,1,10,0.00
2013-2-11,40.6,34.0,20.7,34.3,15.1,-4.5,86,49,25,30.21,29.59,10,7,23,0.00
2013-2-12,37.4,35.8,33.3,21.7,19.2,13.8,57,51,44,29.82,29.56,14,8,22,0.00
2013-2-13,36.1,32.9,30.4,24.3,17.0,13.8,77,52,41,29.82,29.74,6,3,9,0.00
2013-2-14,30.4,30.0,29.5,25.2,24.4,23.9,81,79,77,29.79,29.76,0,0,0,0.00
2013-2-16,24.3,20.9,16.2,1.6,-1.3,-4.4,43,37,33,30.00,29.94,8,6,14,0.00
2013-2-17,16.2,11.8,9.3,-2.7,-5.8,-8.7,46,44,37,29.94,29.74,20,9,26,0.00
2013-2-18,23.0,13.6,6.6,-4.9,-9.3,-11.6,42,35,25,30.15,29.88,15,8,22,0.00
2013-2-19,44.2,30.0,14.5,30.0,6.9,-11.2,89,41,23,30.12,29.59,9,3,19,0.00
2013-2-20,32.2,27.2,17.2,29.7,11.2,0.1,90,52,39,29.79,29.59,19,7,27,0.00
2013-2-21,22.1,15.4,10.2,13.1,0.8,-6.9,75,52,35,30.39,29.79,15,5,22,0.00
2013-2-22,34.7,23.7,9.0,19.8,10.9,0.5,86,59,39,30.44,30.21,7,2,10,0.00
2013-2-23,38.7,34.7,28.4,29.7,21.3,11.5,82,60,39,30.21,29.85,4,2,13,0.04
2013-2-24,35.4,33.9,32.7,34.3,29.6,22.3,96,85,62,29.94,29.79,6,1,9,0.04
2013-2-25,37.6,33.7,32.4,33.1,29.7,23.5,96,86,59,30.24,29.94,3,0,6,0.00
2013-2-26,41.4,35.8,31.8,34.2,25.5,15.1,98,70,39,30.30,30.09,4,1,9,0.00
2013-2-27,41.5,35.5,33.3,34.9,24.4,14.4,98,66,39,30.09,29.65,7,2,14,0.28
2013-2-28,42.4,36.2,33.3,31.1,27.8,22.5,89,73,48,29.65,29.56,6,2,11,0.00
2013-3-1,34.0,32.6,31.5,30.0,26.0,18.9,93,77,54,29.79,29.62,7,4,11,0.00
2013-3-2,32.2,28.2,22.8,30.9,19.1,11.5,95,70,46,29.82,29.76,7,4,12,0.00
2013-3-3,30.0,25.3,22.6,20.3,14.9,9.7,87,66,44,29.76,29.68,6,3,10,0.00
2013-3-4,26.2,24.2,21.9,19.6,12.4,5.7,80,61,45,29.91,29.71,7,3,13,0.00
2013-3-5,32.5,27.9,24.6,23.0,17.5,11.8,80,65,44,30.12,29.91,7,4,9,0.00
2013-3-6,44.2,35.0,24.4,31.6,17.9,10.9,94,54,29,30.21,30.09,10,4,17,0.04
2013-3-7,35.4,32.9,30.0,18.0,13.8,9.3,59,45,35,30.21,30.18,9,6,14,0.00
2013-3-8,35.6,31.6,29.1,17.2,15.3,11.5,59,51,41,30.36,30.18,9,6,16,0.00
2013-3-9,40.3,32.3,23.2,19.4,15.0,10.4,75,49,34,30.39,30.30,6,2,10,0.00
2013-3-10,55.8,44.1,29.5,17.8,14.2,11.3,55,32,20,30.33,30.03,9,6,23,0.00
2013-3-11,51.1,48.2,43.2,20.3,17.7,15.1,38,30,26,30.12,29.88,11,8,24,0.00
2013-3-12,54.7,46.3,37.8,50.4,37.1,18.0,98,73,28,29.88,29.74,10,5,25,0.96
2013-3-13,43.0,37.2,33.3,34.3,23.9,12.4,88,61,30,29.82,29.74,6,3,14,0.00
2013-3-14,33.4,32.7,31.6,16.5,14.0,10.9,50,46,41,29.74,29.74,7,6,12,0.00
2013-3-22,35.6,30.1,27.0,17.2,12.6,9.3,56,48,40,29.74,29.68,11,4,16,0.00
2013-3-23,35.4,31.3,23.9,18.5,13.9,11.3,63,49,40,29.79,29.68,19,12,28,0.00
2013-3-24,37.2,33.7,26.8,18.7,14.6,10.9,57,45,34,29.88,29.79,14,6,20,0.00
2013-3-25,41.5,32.9,22.5,22.5,17.9,10.8,81,55,39,29.82,29.59,8,3,13,0.00
2013-3-26,46.6,37.0,29.8,19.9,16.5,11.5,59,44,27,29.79,29.65,9,4,15,0.00
2013-3-27,46.4,39.8,31.5,25.2,17.9,12.0,62,41,33,29.94,29.76,8,4,13,0.00
2013-3-28,50.0,41.2,35.4,35.4,28.1,22.1,91,63,35,30.03,29.94,7,2,11,0.00
2013-3-29,48.2,42.2,38.1,35.8,24.9,19.0,80,51,31,30.06,30.00,7,2,9,0.00
2013-3-30,48.9,40.0,32.0,23.0,13.9,4.5,64,37,21,30.12,30.06,7,3,11,0.00
2013-3-31,57.6,45.8,32.7,36.0,13.8,5.4,75,28,19,30.06,29.68,10,6,22,0.00
2013-4-1,47.5,39.5,27.0,38.1,24.1,8.1,81,56,28,29.79,29.50,19,8,31,0.00
2013-4-2,32.7,28.1,23.2,11.5,6.4,2.8,60,40,31,29.88,29.79,18,11,28,0.00
2013-4-3,37.8,29.4,25.5,8.6,3.8,0.9,39,33,27,29.97,29.88,19,13,28,0.00
2013-4-21,43.5,39.2,32.9,12.4,9.6,6.8,34,29,25,30.68,30.62,8,5,13,0.00
2013-4-22,57.9,44.6,30.6,18.0,12.1,6.1,39,27,19,30.71,30.50,11,6,17,0.00
2013-4-23,60.3,46.8,34.0,28.6,18.8,6.6,52,33,23,30.50,30.12,10,5,16,0.00
2013-4-24,76.5,57.7,39.4,44.1,31.0,24.8,78,41,18,30.12,29.59,10,5,22,0.00
2013-4-25,60.4,47.8,41.7,48.9,22.1,13.8,78,38,20,30.30,29.59,14,6,24,0.00
2013-4-26,54.1,45.9,38.1,32.5,23.3,13.1,62,41,29,30.44,30.27,8,3,13,0.00
2013-4-27,60.6,47.7,35.8,31.5,24.4,17.6,78,44,22,30.44,30.30,5,1,8,0.00
2013-4-28,70.2,55.1,40.5,33.1,24.2,17.2,53,32,19,30.30,30.06,8,3,12,0.00
2013-4-29,66.7,59.9,55.9,33.4,27.3,22.3,38,29,23,30.15,30.09,8,5,17,0.00
2013-4-30,69.4,60.6,51.3,39.0,33.5,28.6,62,37,27,30.27,30.15,8,4,15,0.00
2013-5-1,78.4,64.8,52.2,36.9,29.6,23.0,56,28,18,30.41,30.24,6,3,12,0.00
2013-5-2,78.1,67.1,57.6,38.3,30.3,23.7,43,26,20,30.41,30.30,8,4,15,0.00
2013-5-3,71.8,61.1,49.8,32.2,25.4,17.8,37,26,19,30.47,30.30,8,3,14,0.00
2013-5-4,75.9,63.4,50.9,36.7,30.5,26.4,47,30,18,30.33,30.15,6,3,11,0.00
2013-5-5,79.7,65.6,55.6,33.6,27.8,21.7,38,24,17,30.21,30.09,8,4,15,0.00
2013-5-6,78.4,67.4,57.2,36.1,25.8,20.1,34,21,15,30.18,30.00,7,5,13,0.00
2013-5-7,83.1,68.9,58.5,43.9,32.8,18.5,47,28,16,30.12,30.00,8,4,15,0.00
2013-5-8,71.8,64.5,61.5,42.3,37.1,27.9,46,37,25,30.12,30.06,6,4,12,0.00
2013-5-25,45.3,45.2,45.1,38.7,38.6,38.5,78,78,77,29.94,29.94,15,14,24,0.00
2013-5-26,53.1,46.7,43.0,40.8,36.6,28.0,86,69,39,30.06,29.88,11,7,23,0.08
2013-5-27,67.5,55.4,42.1,40.3,30.8,23.0,85,45,22,30.15,30.03,8,4,17,0.00
2013-5-28,75.0,60.6,47.1,38.5,31.3,25.9,48,34,18,30.21,30.06,9,4,14,0.00
2013-5-29,72.7,64.3,56.5,61.2,51.3,34.0,89,65,35,30.06,29.85,9,4,19,0.08
2013-5-30,86.7,73.1,60.8,61.7,54.3,45.5,89,55,27,30.06,29.91,6,3,11,0.00
2013-5-31,93.4,78.2,67.3,62.1,51.4,41.2,70,41,22,30.03,29.85,7,4,13,0.00
2013-6-1,90.0,75.7,65.5,68.7,55.7,43.3,84,53,23,29.91,29.74,8,4,17,0.00
2013-6-2,85.3,73.9,66.2,68.7,57.9,44.1,97,61,32,29.79,29.62,9,5,19,0.12
2013-6-3,69.4,64.9,55.9,49.3,39.6,29.7,54,40,23,29.85,29.74,8,5,17,0.00
2013-6-4,65.8,57.7,53.1,38.3,32.1,29.1,49,38,27,30.09,29.85,12,6,20,0.00
2013-6-5,66.7,59.3,49.5,46.2,34.2,27.0,85,41,24,30.21,30.09,6,2,10,0.00
2013-6-6,62.4,57.1,53.2,55.6,41.7,28.9,97,59,36,30.18,30.06,5,2,8,0.16
2013-6-7,60.1,56.7,54.0,55.8,51.4,41.0,98,83,51,30.06,29.88,2,0,8,0.52
2013-6-8,61.3,58.3,55.6,57.6,55.0,49.6,98,89,67,30.00,29.76,5,2,9,0.04
2013-6-9,78.3,66.2,59.2,57.2,47.4,35.8,92,56,23,30.18,30.00,6,3,10,0.00
2013-6-10,76.3,64.1,56.5,55.8,48.4,35.1,84,59,23,30.18,29.94,8,2,13,0.00
2013-6-11,63.0,60.0,57.0,59.0,56.7,53.4,98,89,76,29.94,29.59,8,2,13,0.96
2013-6-12,69.8,61.0,56.3,55.6,48.3,39.6,95,66,35,29.85,29.62,10,5,19,0.04
2013-6-13,58.1,56.9,55.9,54.3,53.6,52.5,91,89,84,29.82,29.79,6,3,10,0.00
2013-6-24,68.9,68.4,68.2,65.3,63.9,62.2,90,86,81,29.91,29.85,7,5,14,0.08
2013-6-25,86.7,72.5,68.2,69.1,63.2,48.6,94,75,35,29.88,29.74,9,6,18,0.75
2013-6-26,82.4,72.3,68.5,69.4,63.7,51.8,97,77,38,29.76,29.71,7,4,13,0.16
2013-6-27,78.1,72.3,69.6,66.7,61.7,55.9,82,70,47,29.76,29.74,6,5,12,0.00
2013-6-28,75.6,69.2,63.1,64.8,53.4,44.4,84,59,36,29.50,29.38,8,4,15,0.04
2013-6-29,74.3,66.8,59.9,66.6,58.8,50.5,97,77,45,29.65,29.50,4,1,9,0.00
2013-6-30,79.5,71.2,64.8,70.5,56.3,46.0,98,64,32,29.91,29.65,6,2,10,0.00
2013-7-1,74.3,68.8,62.2,61.9,55.6,42.6,88,65,35,30.09,29.91,8,3,13,0.12
2013-7-2,72.0,65.1,61.0,64.4,58.4,53.2,96,80,62,30.12,30.06,5,1,8,0.24
2013-7-6,77.4,76.2,74.8,51.1,48.7,47.3,41,38,36,30.00,29.97,6,4,10,0.00
2013-7-7,83.8,74.8,70.2,68.9,55.1,44.8,91,53,31,30.00,29.91,6,4,12,0.31
2013-7-8,80.2,75.2,68.5,62.2,55.9,53.1,76,52,39,30.03,29.97,5,3,9,0.00
2013-7-9,86.7,75.4,66.9,66.2,59.0,50.7,89,60,31,30.06,29.91,4,1,8,0.00
2013-7-12,78.1,73.0,66.0,50.7,44.1,37.4,58,36,24,30.18,30.12,5,3,9,0.00
2013-7-13,84.6,73.2,61.3,57.4,52.6,46.2,84,51,30,30.27,30.18,7,3,15,0.00
2013-7-14,88.2,78.2,73.4,70.5,60.2,52.7,75,55,31,30.30,30.18,6,3,12,0.00
2013-7-15,89.8,81.1,72.7,68.2,58.6,47.8,85,50,24,30.21,30.12,5,2,10,0.00
2013-7-16,86.7,79.3,71.6,64.8,56.5,50.0,79,47,29,30.21,30.15,6,2,10,0.00
2013-7-17,95.9,81.8,72.9,69.6,59.0,50.5,80,49,22,30.15,29.91,7,5,13,0.04
2013-7-18,87.8,78.0,71.8,72.5,63.8,55.2,93,64,34,30.00,29.88,7,2,10,0.00
2013-7-19,94.3,83.4,74.1,67.8,59.5,49.3,79,48,22,29.88,29.59,11,6,23,0.00
2013-7-20,78.8,75.0,71.4,65.3,58.2,52.9,80,57,43,29.65,29.62,6,5,14,0.00
2013-7-25,68.2,62.9,59.7,43.0,39.7,36.1,54,43,33,30.12,30.09,4,3,7,0.00
2013-7-26,75.7,64.7,55.9,54.3,47.9,40.1,84,58,32,30.09,30.00,5,3,10,0.00
2013-7-27,83.1,69.7,57.7,55.4,49.8,38.8,87,53,22,30.03,29.91,6,3,9,0.00
2013-7-28,80.8,73.4,67.5,61.3,51.3,45.3,79,47,30,29.94,29.85,6,3,15,0.00
2013-7-29,81.1,69.9,63.1,64.0,52.2,39.7,91,57,25,30.06,29.91,7,3,12,0.00
2013-7-30,78.6,70.4,62.6,54.5,45.3,38.5,74,42,25,30.12,30.03,8,3,13,0.00
2013-7-31,84.9,71.4,60.6,54.9,47.5,36.1,81,47,20,30.12,29.97,6,3,13,0.00
2013-8-1,82.6,70.6,66.2,64.4,52.5,44.1,86,56,28,29.97,29.76,8,4,22,0.04
2013-8-2,81.3,71.4,65.1,64.9,52.6,37.2,93,57,23,29.79,29.74,6,4,14,0.00
2013-8-3,75.6,68.9,61.9,60.6,48.2,41.0,89,51,30,29.79,29.74,8,4,15,0.04
2013-8-4,71.6,66.1,62.2,55.4,47.3,39.0,75,52,33,29.94,29.79,12,6,19,0.00
2013-8-5,73.0,64.3,58.1,51.1,36.7,26.4,67,38,22,30.03,29.94,10,5,16,0.00
2013-8-6,80.6,66.7,55.9,44.2,39.9,33.6,64,40,20,30.09,30.00,8,5,13,0.00
2013-8-7,83.8,71.5,60.6,61.0,45.5,39.2,80,42,22,30.09,29.91,7,4,20,0.04
2013-8-8,85.8,75.2,69.3,63.1,56.6,48.6,76,54,33,29.94,29.88,7,4,17,0.00
2013-8-9,76.5,72.9,69.8,71.6,68.0,63.0,93,85,68,29.91,29.74,5,1,13,0.08
2013-8-10,72.5,68.4,63.7,69.1,43.0,32.4,93,43,23,30.00,29.76,12,6,20,0.04
2013-8-11,80.4,68.8,58.3,50.2,42.2,34.0,73,41,20,30.06,29.94,5,3,10,0.00
2013-8-12,82.0,70.5,61.0,48.7,43.4,38.3,55,38,23,29.97,29.85,6,4,12,0.00
2013-8-13,74.5,67.5,63.0,62.2,54.6,45.3,85,64,46,29.85,29.65,8,4,12,0.00
2013-8-14,68.9,63.6,59.7,57.4,43.8,38.7,81,49,34,29.94,29.68,10,6,18,0.36
2013-8-15,62.1,60.3,57.6,44.2,40.6,39.0,61,48,44,29.97,29.94,4,3,9,0.00
2013-8-16,62.8,62.7,62.6,60.8,60.5,60.3,93,92,92,30.21,30.18,3,2,4,0.00
2013-8-17,73.9,65.8,58.8,62.6,48.1,33.4,98,60,24,30.30,30.21,8,2,12,0.00
2013-8-18,82.6,68.3,56.7,53.1,46.7,36.5,78,50,20,30.24,30.03,8,4,13,0.00
2013-8-19,82.4,72.4,63.0,55.0,48.8,42.3,75,46,27,30.03,29.94,8,4,13,0.00
2013-8-20,86.4,74.2,65.3,57.6,49.0,42.3,62,42,24,30.06,29.94,6,4,11,0.00
2013-8-21,89.2,77.8,68.2,52.0,47.7,41.9,54,36,20,30.09,29.94,8,4,14,0.00
2013-8-22,84.2,75.0,68.5,62.4,51.3,46.8,80,44,30,29.97,29.79,8,5,18,0.39
2013-8-25,71.4,70.6,69.3,45.3,41.9,40.3,41,36,33,30.09,30.06,5,5,11,0.00
2013-8-26,72.0,68.3,64.2,66.6,60.0,43.2,89,75,39,30.09,29.85,8,4,14,0.04
2013-8-27,79.3,73.1,70.0,69.3,63.9,54.1,95,75,43,29.91,29.85,4,1,6,0.00
2013-8-28,83.7,73.7,68.2,68.7,63.3,52.7,97,73,35,29.94,29.82,5,2,9,0.00
2013-8-29,77.0,70.4,66.6,67.3,61.5,52.3,95,76,43,30.03,29.94,4,1,8,0.00
2013-8-30,85.6,74.3,65.8,69.8,58.5,46.6,98,63,29,30.00,29.74,5,2,10,0.00
2013-8-31,78.8,72.8,69.1,67.6,62.2,52.5,88,70,44,29.76,29.71,6,2,10,0.00
2013-9-1,81.0,73.5,68.5,67.5,59.1,49.1,91,64,33,29.85,29.76,5,1,10,0.00
2013-9-2,80.4,72.5,65.3,69.1,62.4,51.4,92,72,46,29.76,29.59,10,2,34,0.31
2013-9-3,78.1,69.5,63.3,63.7,50.9,42.6,92,55,31,29.76,29.65,9,4,15,0.00
2013-9-4,72.3,66.4,62.1,54.3,45.7,38.7,65,48,32,29.88,29.76,10,5,17,0.00
2013-9-5,64.2,59.7,53.6,45.3,32.2,23.5,59,37,23,30.12,29.85,10,6,17,0.00
2013-9-6,72.5,59.4,46.6,38.8,32.6,26.6,73,39,21,30.21,30.00,6,4,13,0.00
2013-9-7,71.1,63.5,57.9,52.0,37.9,32.5,76,39,25,30.00,29.79,9,6,17,0.00
2013-9-8,63.5,58.6,54.9,55.9,36.3,25.7,85,46,25,30.06,29.74,11,6,27,0.08
2013-9-9,70.2,58.3,46.6,39.4,33.7,27.9,74,42,23,30.15,30.00,7,5,14,0.00
2013-9-10,76.5,67.2,60.6,64.9,54.6,36.7,88,65,39,30.03,29.91,8,5,17,0.00
2013-9-11,93.2,80.7,71.2,69.4,60.0,49.1,90,54,25,29.94,29.82,9,6,20,0.00
2013-9-12,74.5,70.4,66.0,69.3,65.8,61.0,97,85,69,29.91,29.62,7,4,13,1.03
2013-9-13,66.4,41.1,56.5,64.2,5.1,-99.9,93,83,67,30.98,29.62,7,5,15,0.08
2013-9-14,-200.0,0.0,200.0,99.9,3.5,-99.9,84,61,38,30.15,30.03,8,4,15,0.08
2013-9-15,-200.0,0.0,200.0,99.9,51.2,-99.9,80,52,33,30.30,30.12,8,4,17,0.00
2013-9-16,-200.0,0.0,200.0,99.9,9.7,-99.9,90,61,27,30.62,30.12,10,5,21,0.08
2013-9-17,-200.0,0.0,200.0,99.9,50.3,-99.9,82,51,25,30.98,30.50,7,3,11,0.00
2013-9-18,-200.0,0.0,200.0,99.9,98.5,-99.9,66,47,32,30.83,30.27,7,4,13,0.00
2013-9-19,-200.0,0.0,200.0,99.9,97.1,-99.9,67,48,32,30.41,30.09,7,4,13,0.00
2013-9-20,82.4,62.3,56.5,99.9,41.4,-99.9,71,42,20,30.24,29.91,6,4,15,0.00
2013-9-21,73.8,67.1,63.0,45.7,43.1,39.4,53,42,31,29.91,29.71,10,6,24,0.00
2013-9-22,58.5,54.6,50.4,41.2,36.0,32.4,59,50,37,30.09,29.91,13,10,21,0.00
2013-9-23,54.3,50.3,46.6,38.3,32.0,27.9,68,50,38,30.65,30.09,13,9,22,0.00
2013-9-24,63.0,54.8,48.9,42.6,31.3,25.9,69,41,27,30.65,30.15,11,5,17,0.00
2013-9-25,63.0,54.4,47.7,48.4,40.7,34.0,92,63,35,30.53,30.18,8,3,13,0.00
2013-9-26,61.5,53.7,44.1,50.9,41.5,34.2,96,67,36,30.89,30.41,6,2,10,0.00
2013-9-27,67.3,59.0,53.8,49.8,43.5,36.5,79,59,34,30.95,30.47,5,2,9,0.00
2013-9-28,71.8,58.9,50.0,52.7,45.0,35.6,89,63,27,30.89,30.41,8,2,11,0.00
2013-9-29,75.7,62.0,52.5,49.8,44.1,38.3,84,54,27,30.95,30.24,8,4,13,0.00
2013-9-30,72.9,61.7,51.6,47.5,42.0,32.7,80,50,23,30.83,30.15,7,3,11,0.00
2013-10-1,73.6,61.6,52.0,54.7,46.7,38.7,83,61,34,30.92,30.12,5,2,12,0.00
2013-10-2,76.8,66.2,58.3,49.6,42.3,31.1,64,44,25,30.53,30.03,8,5,17,0.00
2013-10-3,70.5,61.1,53.1,43.2,36.4,28.9,59,41,22,30.68,30.18,6,2,11,0.00
2013-10-4,64.4,57.3,50.7,49.5,40.5,34.2,83,55,36,30.44,30.24,5,2,8,0.00
2013-10-5,63.0,32.7,53.4,99.9,62.9,28.6,62,42,24,30.95,30.44,6,3,11,0.00
2013-10-6,-200.0,0.0,200.0,99.9,32.6,-99.9,87,59,39,30.74,30.74,7,2,14,0.12
2013-10-7,-200.0,0.0,200.0,99.9,6.6,-99.9,89,59,32,30.86,30.44,10,5,17,0.44
2013-10-8,-200.0,0.0,200.0,99.9,99.9,99.9,49,39,25,30.98,30.65,14,6,23,0.00
2013-10-9,64.9,9.4,53.6,99.9,85.3,-99.9,70,43,17,30.09,30.09,8,5,13,0.00
2013-10-10,-200.0,0.0,200.0,99.9,74.9,-99.9,77,49,36,30.24,30.09,5,4,10,0.00
2013-10-11,-200.0,0.0,200.0,99.9,-48.9,-99.9,87,75,55,30.18,30.15,4,4,0,0.00
2013-10-30,46.9,43.0,37.9,26.6,23.9,19.4,53,47,38,30.27,30.18,8,4,13,0.00
2013-10-31,60.1,49.3,39.7,54.5,38.8,23.9,83,68,49,30.21,29.56,9,6,26,0.00
2013-11-1,68.0,62.8,60.1,58.3,51.4,29.3,83,69,26,29.56,29.17,15,9,30,0.04
2013-11-8,60.0,37.7,37.0,58.0,15.7,12.6,98,41,38,30.09,29.92,19,15,23,0.00
2013-11-9,42.4,38.2,35.4,26.0,13.9,9.8,63,37,28,30.18,29.92,18,6,22,0.00
2013-11-10,50.0,42.5,37.0,35.6,27.8,20.7,85,58,39,29.92,29.68,24,8,28,0.08
2013-11-11,44.2,39.3,33.1,32.0,18.9,13.4,80,44,31,30.09,29.80,27,11,33,0.00
2013-11-12,33.4,28.8,25.2,18.7,10.1,5.7,56,45,38,30.27,29.95,22,14,28,0.00
2013-11-13,33.6,28.3,21.7,11.8,5.8,0.0,52,39,28,30.33,29.98,17,8,23,0.00
2013-11-14,46.2,39.9,31.3,22.2,15.9,10.0,44,38,29,30.01,29.98,17,9,23,0.00
2013-11-15,54.7,46.0,39.7,16.6,10.5,6.8,29,24,20,30.15,30.01,12,7,17,0.00
2013-11-16,52.3,45.4,40.1,17.7,12.4,8.0,31,26,22,30.27,30.12,9,5,13,0.00
2013-11-17,57.2,55.9,53.1,48.2,44.7,41.0,82,66,55,29.86,29.59,7,3,11,0.00
2013-11-18,59.9,55.2,52.2,53.6,35.0,20.1,87,49,28,29.59,29.33,20,9,29,0.16
2013-11-19,34.9,33.4,30.2,14.5,10.7,6.8,44,39,32,30.39,29.80,25,14,29,0.00
2013-11-20,34.0,29.6,26.1,13.9,8.6,6.0,55,41,31,30.66,30.39,13,5,17,0.00
2013-11-21,45.1,34.3,22.8,12.2,6.9,2.9,50,33,20,30.63,30.33,13,5,19,0.00
2013-11-22,44.8,40.1,36.7,41.0,30.1,12.2,88,70,33,30.33,29.80,22,4,27,0.00
2013-11-23,41.0,31.3,22.1,25.5,12.7,-0.7,88,47,31,30.01,29.77,23,11,28,0.00
2013-11-24,24.1,19.9,15.1,15.8,2.4,-7.1,80,47,32,30.27,29.89,30,17,36,0.00
2013-11-25,27.9,18.5,10.6,-0.3,-4.6,-7.9,45,36,24,30.39,30.15,14,6,19,0.00
2013-11-26,36.3,33.9,32.2,30.1,19.2,5.8,87,57,32,30.21,29.95,12,4,17,0.00
2013-11-27,38.3,35.9,33.6,37.4,33.8,23.6,98,91,60,29.95,29.39,14,4,15,1.18
2013-11-30,29.7,25.4,12.2,6.8,0.6,-3.2,52,34,28,30.74,30.27,14,6,26,0.00
2013-12-1,37.8,33.0,29.5,22.1,12.0,2.3,58,42,31,30.27,30.09,11,5,17,0.00
2013-12-2,35.6,35.2,34.7,33.8,33.8,33.8,96,94,91,29.92,29.92,2,0,4,0.00
2013-12-3,40.6,35.2,32.2,37.4,31.0,13.1,98,85,43,30.01,29.92,10,3,13,0.00
2013-12-4,37.6,34.0,30.9,23.4,19.3,14.1,68,55,45,30.15,30.01,10,2,11,0.00
2013-12-5,55.2,46.4,32.0,48.2,31.9,17.0,82,57,47,30.09,29.77,13,6,22,0.00
2013-12-6,49.5,38.7,33.1,35.6,21.2,10.2,86,51,35,30.15,29.89,15,6,16,0.16
2013-12-7,33.3,29.4,25.3,10.2,3.5,-0.7,40,33,30,30.48,30.12,23,9,27,0.00
2013-12-8,27.3,24.8,22.6,1.5,-0.7,-4.3,37,33,29,30.60,30.45,13,4,15,0.00
2013-12-9,38.1,31.1,24.4,32.0,15.9,-0.2,80,55,32,30.45,29.80,15,6,22,0.00
2013-12-10,37.9,29.4,22.5,17.8,7.0,-2.5,56,39,30,29.95,29.80,20,8,27,0.00
2013-12-11,29.3,22.7,16.3,15.8,1.8,-5.6,78,41,30,30.18,29.95,18,9,23,0.00
2013-12-12,21.2,14.6,7.2,0.8,-6.8,-11.3,45,38,28,30.30,29.92,16,6,23,0.00
2013-12-13,21.6,13.4,1.4,9.9,-5.9,-19.0,64,42,36,30.45,29.86,25,9,29,0.00
2013-12-14,11.3,4.2,-2.6,-10.1,-16.5,-22.6,37,37,37,30.63,30.15,8,3,9,0.00
2013-12-15,21.6,15.5,9.1,15.5,5.8,-10.1,82,66,37,30.15,29.56,10,4,13,0.00
2013-12-16,14.5,7.4,-1.1,4.3,-5.1,-13.9,65,56,53,30.27,29.68,17,6,21,0.00
2013-12-17,17.8,6.1,-3.8,4.0,-7.0,-16.3,61,54,51,30.27,30.01,11,4,14,0.00
2013-12-18,29.3,16.9,7.2,20.9,5.5,-4.8,81,60,47,30.01,29.92,10,3,13,0.00
2013-12-19,36.3,31.3,22.5,21.1,16.1,10.0,80,55,40,30.07,29.89,10,4,14,0.00
2013-12-20,36.0,26.1,20.3,32.0,18.9,13.4,91,75,46,30.07,29.92,9,4,13,0.00
2013-12-21,27.9,23.3,20.3,24.5,18.9,15.4,87,83,79,30.01,29.80,10,4,13,0.00
2013-12-22,32.4,24.5,19.6,32.0,21.5,14.7,98,88,81,30.01,29.77,10,2,13,0.00
2013-12-23,24.8,23.5,21.9,21.2,18.7,10.9,86,82,62,30.21,29.98,0,0,0,0.00
2013-12-24,21.9,12.3,6.8,11.3,-0.4,-5.6,63,56,54,30.36,30.18,0,0,0,0.00
2013-12-25,14.5,6.7,-0.9,1.0,-5.7,-12.8,56,56,52,30.57,30.36,0,0,0,0.00
2013-12-26,27.3,22.9,14.7,21.5,14.7,0.0,85,71,48,30.36,30.07,0,0,0,0.00
2013-12-27,31.6,26.6,23.7,25.4,18.1,10.0,83,71,46,30.21,30.09,0,0,0,0.00
2013-12-28,36.3,32.1,23.2,30.5,22.9,10.7,80,68,57,30.09,29.95,8,2,12,0.15
2013-12-29,37.0,30.2,21.0,29.6,23.8,15.8,87,77,51,29.98,29.59,10,4,15,0.32
2013-12-30,24.6,12.3,1.2,19.9,-1.0,-14.4,84,56,47,30.24,29.56,15,6,19,0.00
2013-12-31,16.2,8.3,1.9,8.8,-6.6,-13.8,72,50,47,30.24,30.01,9,3,13,0.00
2014-1-1,11.1,3.5,-7.2,-1.2,-8.3,-18.4,57,57,57,30.51,30.12,13,5,15,0.00
2014-1-2,-7.1,-11.3,-13.7,-18.3,-22.2,-24.5,57,57,57,30.51,30.09,12,8,16,0.00